Date String (YYYY-MM-DD hh:mm:ss) UTC,Instrument flags,absolute air pressure of the measurement (hPa),sample flow rate (lpm),inlet stack bypass flow (lpm),air temperature of the measurement (°C),ambient temperature measured by the external sensor (°C),aerosol sample conditioner tube jacket temperature (°C),OPC LED temperature (°C),internal box temperature (°C),relative humidity of the measurement (%),span deviation,mass concentration of particles derived from Lorenz-Mie calculation of OPC scattering (μg/m³),mass concentration of particles derived from Lorenz-Mie calculation of OPC scattering (μg/m³),mass concentration of particles derived from Lorenz-Mie calculation of OPC scattering (μg/m³)
DateTimeUTC,F1_M11,P_M11,Q1_M11,Q2_M11,T1_M11,T2_M11,T3_M11,T4_M11,T5_M11,U1_M11,ZSPAN_M11,X0_M11,X2_M11,X1_M11
2024-02-10 10:00:00,SystemResetWarning,0825.2,4.99,000.00,018.2,017.6,000.0,026.8,020.0,20.9,0000.0,0007.43,0003.39,0003.17
2024-02-10 10:01:00,SystemResetWarning,0825.2,4.99,000.00,018.2,017.6,000.0,026.8,020.0,20.8,0000.0,0007.40,0003.44,0003.20
2024-02-10 10:02:00,SystemResetWarning,0825.1,5.00,000.00,018.2,017.6,000.0,026.8,020.0,20.7,0000.0,0007.44,0003.44,0003.20
2024-02-10 10:03:00,SystemResetWarning,0825.1,5.01,000.00,018.2,017.6,000.0,026.8,020.0,20.6,0000.0,0008.17,0003.43,0003.18
2024-02-10 10:04:00,SystemResetWarning,0825.1,5.00,000.00,018.2,017.6,000.0,026.8,020.0,20.6,0000.0,0007.73,0003.39,0003.17
2024-02-10 10:05:00,SystemResetWarning,0825.1,5.00,000.00,018.2,017.6,000.0,026.8,020.0,20.6,0000.0,0007.07,0003.37,0003.16
2024-02-10 10:06:00,SystemResetWarning,0825.1,5.00,000.00,018.2,017.7,000.0,026.8,020.0,20.5,0000.0,0006.69,0003.35,0003.15
2024-02-10 10:07:00,SystemResetWarning,0825.1,5.00,000.00,018.2,017.7,000.0,026.8,020.0,20.5,0000.0,0006.62,0003.31,0003.11
2024-02-10 10:08:00,SystemResetWarning,0825.1,5.00,000.00,018.2,017.7,000.0,026.8,020.0,20.5,0000.0,0006.41,0003.24,0003.03
2024-02-10 10:09:00,SystemResetWarning,0825.1,5.00,000.00,018.2,017.7,000.0,026.8,020.0,20.4,0000.0,0006.20,0003.18,0002.95
2024-02-10 10:10:00,SystemResetWarning,0825.1,5.01,000.00,018.2,017.7,000.0,026.8,020.0,20.4,0000.0,0006.06,0003.13,0002.87
2024-02-10 10:11:00,SystemResetWarning,0825.1,5.00,000.00,018.2,017.7,000.0,026.8,020.0,20.5,0000.0,0005.91,0003.06,0002.79
2024-02-10 10:12:00,SystemResetWarning,0825.1,5.00,000.00,018.2,017.7,000.0,026.8,020.0,20.6,0000.0,0006.30,0002.94,0002.67
2024-02-10 10:13:00,SystemResetWarning,0825.1,5.00,000.00,018.2,017.7,000.0,026.8,020.0,20.5,0000.0,0006.34,0002.84,0002.54
2024-02-10 10:14:00,SystemResetWarning,0825.1,5.00,000.00,018.2,017.7,000.0,026.8,020.0,20.5,0000.0,0005.80,0002.76,0002.42
2024-02-10 10:15:00,SystemResetWarning,0825.1,5.00,000.00,018.2,017.7,000.0,026.8,020.0,20.5,0000.0,0005.44,0002.76,0002.36
2024-02-10 10:16:00,SystemResetWarning,0825.1,5.00,000.00,018.2,017.7,000.0,026.8,020.0,20.5,0000.0,0005.11,0002.78,0002.33
2024-02-10 10:17:00,SystemResetWarning,0825.1,5.00,000.00,018.2,017.7,000.0,026.8,020.0,20.6,0000.0,0005.32,0002.87,0002.37
2024-02-10 10:18:00,SystemResetWarning,0825.2,5.00,000.00,018.2,017.6,000.0,026.8,020.0,20.8,0000.0,0005.48,0002.96,0002.44
2024-02-10 10:19:00,SystemResetWarning,0825.2,5.00,000.00,018.2,017.6,000.0,026.8,020.0,20.9,0000.0,0005.76,0003.09,0002.52
2024-02-10 10:20:00,SystemResetWarning,0825.1,5.00,000.00,018.2,017.6,000.0,026.8,020.0,20.9,0000.0,0006.45,0003.17,0002.58
2024-02-10 10:21:00,SystemResetWarning,0825.1,5.00,000.00,018.2,017.6,000.0,026.8,020.0,20.9,0000.0,0007.15,0003.22,0002.64
2024-02-10 10:22:00,SystemResetWarning,0825.1,5.00,000.00,018.2,017.6,000.0,026.8,020.0,20.9,0000.0,0008.23,0003.28,0002.71
2024-02-10 10:23:00,SystemResetWarning,0825.1,5.00,000.00,018.2,017.6,000.0,026.8,020.0,20.8,0000.0,0008.14,0003.36,0002.83
2024-02-10 10:24:00,SystemResetWarning,0825.1,5.00,000.00,018.2,017.6,000.0,026.8,020.0,20.8,0000.0,0008.10,0003.45,0002.98
2024-02-10 10:25:00,SystemResetWarning,0825.1,5.00,000.00,018.2,017.5,000.0,026.8,020.0,20.8,0000.0,0008.06,0003.51,0003.11
2024-02-10 10:26:00,SystemResetWarning,0825.1,5.00,000.00,018.2,017.5,000.0,026.8,020.0,20.8,0000.0,0008.03,0003.55,0003.15
2024-02-10 10:27:00,SystemResetWarning,0825.1,5.01,000.00,018.2,017.5,000.0,026.8,020.0,20.7,0000.0,0007.95,0003.55,0003.18
2024-02-10 10:28:00,SystemResetWarning,0825.1,5.01,000.00,018.2,017.5,000.0,026.8,020.0,20.6,0000.0,0007.86,0003.52,0003.17
2024-02-10 10:29:00,SystemResetWarning,0825.1,4.99,000.00,018.2,017.5,000.0,026.8,020.0,20.6,0000.0,0007.99,0003.47,0003.16
2024-02-10 10:30:00,SystemResetWarning,0825.1,4.99,000.00,018.2,017.5,000.0,026.8,020.0,20.7,0000.0,0008.45,0003.46,0003.15
2024-02-10 10:31:00,SystemResetWarning,0825.1,5.01,000.00,018.2,017.5,000.0,026.9,020.0,20.7,0000.0,0008.47,0003.44,0003.14
2024-02-10 10:32:00,SystemResetWarning,0825.1,5.02,000.00,018.2,017.7,000.0,026.9,020.1,20.7,0000.0,0008.05,0003.43,0003.13
2024-02-10 10:33:00,SystemResetWarning,0825.1,4.99,000.00,018.4,018.4,000.0,027.0,020.5,20.4,0000.0,0006.97,0003.41,0003.12
2024-02-10 10:34:00,SystemResetWarning,0825.1,5.00,000.00,018.6,019.0,000.0,027.0,020.8,20.1,0000.0,0006.81,0003.37,0003.09
2024-02-10 10:35:00,SystemResetWarning,0825.1,5.00,000.00,018.7,018.9,000.0,027.0,020.7,20.0,0000.0,0007.05,0003.34,0003.06
2024-02-10 10:36:00,SystemResetWarning,0825.1,5.00,000.00,018.7,018.7,000.0,026.9,020.6,20.0,0000.0,0007.54,0003.30,0003.02
2024-02-10 10:37:00,SystemResetWarning,0825.1,4.99,000.00,018.7,018.6,000.0,026.9,020.5,20.0,0000.0,0007.89,0003.26,0002.96
2024-02-10 10:38:00,SystemResetWarning,0825.1,5.01,000.00,018.7,018.5,000.0,026.9,020.5,19.8,0000.0,0008.70,0003.24,0002.93
2024-02-10 10:39:00,SystemResetWarning,0825.0,5.01,000.00,018.7,018.4,000.0,026.9,020.4,19.7,0000.0,0008.76,0003.27,0002.94
2024-02-10 10:40:00,SystemResetWarning,0825.0,5.00,000.00,018.6,018.3,000.0,026.9,020.4,19.7,0000.0,0008.77,0003.29,0002.96
2024-02-10 10:41:00,SystemResetWarning,0825.0,5.00,000.00,018.6,018.3,000.0,027.0,020.4,19.6,0000.0,0008.19,0003.29,0002.96
2024-02-10 10:42:00,SystemResetWarning,0825.0,4.99,000.00,018.6,018.2,000.0,027.0,020.4,19.6,0000.0,0008.22,0003.29,0002.95
2024-02-10 10:43:00,SystemResetWarning,0825.0,4.99,000.00,018.6,018.2,000.0,027.0,020.4,19.6,0000.0,0008.90,0003.25,0002.94
2024-02-10 10:44:00,SystemResetWarning,0825.0,5.01,000.00,018.6,018.2,000.0,027.0,020.3,19.6,0000.0,0008.95,0003.24,0002.92
2024-02-10 10:45:00,SystemResetWarning,0825.0,5.01,000.00,018.6,018.2,000.0,027.0,020.3,19.6,0000.0,0009.02,0003.23,0002.90
2024-02-10 10:46:00,SystemResetWarning,0825.1,5.00,000.00,018.6,018.1,000.0,027.0,020.3,19.6,0000.0,0008.71,0003.19,0002.84
2024-02-10 10:47:00,SystemResetWarning,0825.0,5.00,000.00,018.5,018.1,000.0,027.0,020.3,19.5,0000.0,0008.20,0003.17,0002.78
2024-02-10 10:48:00,SystemResetWarning,0825.1,5.00,000.00,018.5,018.1,000.0,027.0,020.3,19.6,0000.0,0007.81,0003.17,0002.74
2024-02-10 10:49:00,SystemResetWarning,0825.1,5.00,000.00,018.5,018.1,000.0,027.0,020.2,19.7,0000.0,0006.69,0003.16,0002.70
2024-02-10 10:50:00,SystemResetWarning,0825.0,5.00,000.00,018.5,018.0,000.0,027.0,020.2,19.9,0000.0,0007.56,0003.11,0002.65
2024-02-10 10:51:00,SystemResetWarning,0825.1,5.00,000.00,018.5,018.0,000.0,027.0,020.2,20.0,0000.0,0007.61,0003.08,0002.58
2024-02-10 10:52:00,SystemResetWarning,0825.1,5.00,000.00,018.5,018.0,000.0,027.0,020.2,20.0,0000.0,0007.71,0003.05,0002.53
2024-02-10 10:53:00,SystemResetWarning,0825.1,5.01,000.00,018.4,017.9,000.0,026.9,020.1,20.1,0000.0,0007.80,0003.07,0002.52
2024-02-10 10:54:00,SystemResetWarning,0825.1,5.01,000.00,018.4,017.9,000.0,026.9,020.1,20.3,0000.0,0006.86,0003.12,0002.56
2024-02-10 10:55:00,SystemResetWarning,0825.1,5.00,000.00,018.4,017.9,000.0,026.9,020.0,20.4,0000.0,0006.84,0003.16,0002.61
2024-02-10 10:56:00,SystemResetWarning,0825.1,5.00,000.00,018.3,017.8,000.0,026.9,020.0,20.5,0000.0,0006.72,0003.19,0002.66
2024-02-10 10:57:00,SystemResetWarning,0825.1,4.99,000.00,018.3,017.8,000.0,026.9,020.0,20.6,0000.0,0006.94,0003.26,0002.72
2024-02-10 10:58:00,SystemResetWarning,0825.1,4.99,000.00,018.3,017.8,000.0,026.9,020.0,20.8,0000.0,0007.18,0003.31,0002.78
2024-02-10 10:59:00,SystemResetWarning,0825.1,5.00,000.00,018.3,017.8,000.0,026.9,020.0,20.9,0000.0,0007.33,0003.38,0002.87
